Location: *
(2.5500°S, 65.9667°W)
Time: 20:03:59
(UTC+00:00)

Cosmos 2173 Rocket - Pass Details

Date: 07 June 2022
Orbit: 945 x 1000 km, 83.0° (Epoch: 02 July)

Event Time Altitude Azimuth Distance (km) Brightness Sun altitude
Rises 09:35:54 0° 353° (N) 3,670 7.2 -11.8°
Reaches altitude 10° 09:38:24 10° 351° (N) 2,732 6.5 -11.2°
Maximum altitude 09:44:39 73° 267° (W) 1,038 4.0 -9.8°
Drops below altitude 10° 09:50:59 10° 183° (S) 2,769 6.1 -8.3°
Sets 09:53:33 0° 181° (S) 3,722 6.8 -7.7°
